• In Uzbekistan
  • List of Countries
  • For 7 days
  • Water Temperature
  • Satellite Maps
  • Weather Map
  • Weather Widgets
  • user-avatar
    Login

    Hourly Weather Kwaszenina

    Today, 17 July, Tuesday

    Time Temperature Precipitation Wind Pressure Humidity
    00:00 +15°C° 0 mm 2 mps 718 mmHg 96%
    01:00 +15°C° 0 mm 2 mps 718 mmHg 97%
    02:00 +14°C° 0 mm 2 mps 718 mmHg 97%
    03:00 +14°C° 0 mm 2 mps 718 mmHg 97%
    04:00 +14°C° 0 mm 2 mps 717 mmHg 97%
    05:00 +14°C° 0 mm 2 mps 717 mmHg 97%
    06:00 +15°C° 0.1 mm 2 mps 717 mmHg 96%
    07:00 +16°C° 0.1 mm 3 mps 717 mmHg 94%
    08:00 +17°C° 0.1 mm 3 mps 717 mmHg 93%
    09:00 +18°C° 0.2 mm 3 mps 717 mmHg 90%
    10:00 +19°C° 0.2 mm 3 mps 717 mmHg 87%
    11:00 +20°C° 0.2 mm 3 mps 717 mmHg 84%
    12:00 +21°C° 0.5 mm 4 mps 717 mmHg 83%
    13:00 +21°C° 0.5 mm 4 mps 717 mmHg 82%
    14:00 +22°C° 0.5 mm 4 mps 717 mmHg 81%
    15:00 +22°C° 0.2 mm 4 mps 717 mmHg 80%
    16:00 +22°C° 0.2 mm 4 mps 716 mmHg 79%
    17:00 +22°C° 0.2 mm 4 mps 716 mmHg 77%
    18:00 +21°C° 0.2 mm 4 mps 716 mmHg 82%
    19:00 +20°C° 0.2 mm 3 mps 716 mmHg 88%
    20:00 +19°C° 0.2 mm 3 mps 716 mmHg 93%
    21:00 +18°C° 0.1 mm 3 mps 716 mmHg 94%
    22:00 +18°C° 0.1 mm 2 mps 716 mmHg 96%
    23:00 +17°C° 0.1 mm 2 mps 716 mmHg 97%

    Tomorrow, 18 July, Wednesday

    Time Temperature Precipitation Wind Pressure Humidity
    00:00 +17°C° 0.2 mm 2 mps 716 mmHg 97%
    01:00 +17°C° 0.2 mm 3 mps 716 mmHg 98%
    02:00 +17°C° 0.2 mm 3 mps 716 mmHg 98%
    03:00 +17°C° 2.1 mm 3 mps 716 mmHg 98%
    04:00 +17°C° 2.1 mm 3 mps 716 mmHg 98%
    05:00 +17°C° 2.1 mm 4 mps 716 mmHg 98%
    06:00 +17°C° 4.2 mm 4 mps 716 mmHg 98%
    07:00 +18°C° 4.2 mm 4 mps 716 mmHg 98%
    08:00 +18°C° 4.2 mm 4 mps 716 mmHg 98%
    09:00 +18°C° 1.1 mm 4 mps 716 mmHg 98%
    10:00 +18°C° 1.1 mm 4 mps 716 mmHg 97%
    11:00 +18°C° 1.1 mm 4 mps 717 mmHg 97%
    12:00 +19°C° 0.4 mm 4 mps 717 mmHg 96%
    13:00 +20°C° 0.4 mm 4 mps 717 mmHg 95%
    14:00 +20°C° 0.4 mm 3 mps 717 mmHg 94%
    15:00 +20°C° 0.6 mm 4 mps 717 mmHg 94%
    16:00 +21°C° 0.6 mm 4 mps 717 mmHg 93%
    17:00 +21°C° 0.6 mm 4 mps 717 mmHg 92%
    18:00 +21°C° 1.1 mm 4 mps 717 mmHg 93%
    19:00 +20°C° 1.1 mm 4 mps 718 mmHg 93%
    20:00 +20°C° 1.1 mm 4 mps 718 mmHg 94%
    21:00 +20°C° 0.8 mm 4 mps 718 mmHg 95%
    22:00 +19°C° 0.8 mm 3 mps 718 mmHg 96%
    23:00 +19°C° 0.8 mm 3 mps 718 mmHg 97%

    Day after tomorrow, 19 July, Thursday

    Time Temperature Precipitation Wind Pressure Humidity
    00:00 +19°C° 0.3 mm 3 mps 718 mmHg 97%
    01:00 +19°C° 0.3 mm 3 mps 718 mmHg 98%
    02:00 +19°C° 0.3 mm 3 mps 718 mmHg 98%
    03:00 +19°C° 0.2 mm 3 mps 718 mmHg 98%
    04:00 +19°C° 0.2 mm 3 mps 718 mmHg 98%
    05:00 +19°C° 0.2 mm 3 mps 719 mmHg 98%
    06:00 +19°C° 0.2 mm 3 mps 719 mmHg 97%
    07:00 +19°C° 0.2 mm 3 mps 719 mmHg 97%
    08:00 +19°C° 0.2 mm 3 mps 719 mmHg 96%
    09:00 +20°C° 0.2 mm 3 mps 719 mmHg 94%
    10:00 +20°C° 0.2 mm 4 mps 720 mmHg 91%
    11:00 +21°C° 0.2 mm 4 mps 720 mmHg 89%
    12:00 +22°C° 0.5 mm 4 mps 720 mmHg 87%
    13:00 +22°C° 0.5 mm 4 mps 720 mmHg 85%
    14:00 +23°C° 0.5 mm 4 mps 720 mmHg 83%
    15:00 +23°C° 0.4 mm 4 mps 720 mmHg 82%
    16:00 +23°C° 0.4 mm 5 mps 720 mmHg 82%
    17:00 +23°C° 0.4 mm 5 mps 720 mmHg 81%
    18:00 +22°C° 0.2 mm 4 mps 720 mmHg 85%
    19:00 +21°C° 0.2 mm 4 mps 720 mmHg 88%
    20:00 +20°C° 0.2 mm 4 mps 721 mmHg 91%
    21:00 +19°C° 0.1 mm 4 mps 721 mmHg 93%
    22:00 +19°C° 0.1 mm 3 mps 721 mmHg 95%
    23:00 +18°C° 0.1 mm 3 mps 721 mmHg 96%

    20 July, Friday

    Time Temperature Precipitation Wind Pressure Humidity
    00:00 +18°C° 0.1 mm 3 mps 721 mmHg 96%
    01:00 +18°C° 0.1 mm 3 mps 721 mmHg 97%
    02:00 +17°C° 0.1 mm 3 mps 721 mmHg 97%
    03:00 +17°C° 0.2 mm 3 mps 721 mmHg 97%
    04:00 +17°C° 0.2 mm 3 mps 721 mmHg 97%
    05:00 +17°C° 0.2 mm 3 mps 721 mmHg 97%
    06:00 +18°C° 0.8 mm 3 mps 721 mmHg 97%
    07:00 +18°C° 0.8 mm 3 mps 721 mmHg 97%
    08:00 +18°C° 0.8 mm 2 mps 722 mmHg 96%
    09:00 +18°C° 1.1 mm 2 mps 722 mmHg 96%
    10:00 +18°C° 1.1 mm 2 mps 722 mmHg 96%
    11:00 +18°C° 1.1 mm 2 mps 722 mmHg 95%
    12:00 +19°C° 0.1 mm 3 mps 722 mmHg 89%
    13:00 +20°C° 0.1 mm 3 mps 722 mmHg 82%
    14:00 +22°C° 0.1 mm 3 mps 722 mmHg 76%
    15:00 +22°C° 0.2 mm 3 mps 722 mmHg 75%
    16:00 +22°C° 0.2 mm 3 mps 722 mmHg 75%
    17:00 +24°C° 0.2 mm 3 mps 722 mmHg 75%
    18:00 +21°C° 0.2 mm 3 mps 722 mmHg 80%
    19:00 +20°C° 0.2 mm 2 mps 722 mmHg 85%
    20:00 +19°C° 0.2 mm 2 mps 722 mmHg 91%
    21:00 +18°C° 0 mm 2 mps 722 mmHg 92%
    22:00 +18°C° 0 mm 2 mps 722 mmHg 93%
    23:00 +17°C° 0 mm 2 mps 722 mmHg 94%

    21 July, Saturday

    Time Temperature Precipitation Wind Pressure Humidity
    00:00 +16°C° 0 mm 2 mps 722 mmHg 94%
    01:00 +16°C° 0 mm 1 mps 722 mmHg 95%
    02:00 +16°C° 0 mm 1 mps 721 mmHg 95%
    03:00 +15°C° 0 mm 1 mps 721 mmHg 95%
    04:00 +15°C° 0 mm 1 mps 721 mmHg 95%
    05:00 +15°C° 0 mm 1 mps 721 mmHg 95%
    06:00 +16°C° 0 mm 1 mps 722 mmHg 91%
    07:00 +19°C° 0 mm 1 mps 722 mmHg 86%
    08:00 +21°C° 0 mm 1 mps 722 mmHg 82%
    09:00 +22°C° 0 mm 1 mps 722 mmHg 75%
    10:00 +24°C° 0 mm 1 mps 722 mmHg 68%
    11:00 +25°C° 0 mm 2 mps 722 mmHg 61%
    12:00 +26°C° 0 mm 2 mps 722 mmHg 59%
    13:00 +26°C° 0 mm 2 mps 722 mmHg 58%
    14:00 +26°C° 0 mm 2 mps 722 mmHg 56%
    15:00 +26°C° 0 mm 1 mps 721 mmHg 57%
    16:00 +26°C° 0 mm 1 mps 721 mmHg 59%
    17:00 +26°C° 0 mm 1 mps 721 mmHg 60%
    18:00 +24°C° 0.2 mm 1 mps 721 mmHg 67%
    19:00 +23°C° 0.2 mm 1 mps 720 mmHg 74%
    20:00 +19°C° 0.2 mm 0 mps 720 mmHg 81%
    21:00 +20°C° 0 mm 1 mps 720 mmHg 83%
    22:00 +19°C° 0 mm 1 mps 720 mmHg 85%
    23:00 +19°C° 0 mm 1 mps 720 mmHg 87%

    22 July, Sunday

    Time Temperature Precipitation Wind Pressure Humidity
    00:00 +18°C° 0.2 mm 1 mps 719 mmHg 88%
    01:00 +18°C° 0.2 mm 1 mps 719 mmHg 90%
    02:00 +18°C° 0.2 mm 1 mps 719 mmHg 92%
    03:00 +16°C° 0.3 mm 1 mps 719 mmHg 92%
    04:00 +16°C° 0.3 mm 1 mps 718 mmHg 93%
    05:00 +16°C° 0.3 mm 1 mps 718 mmHg 94%
    06:00 +19°C° 0.1 mm 1 mps 718 mmHg 92%
    07:00 +20°C° 0.1 mm 1 mps 718 mmHg 89%
    08:00 +21°C° 0.1 mm 1 mps 718 mmHg 87%
    09:00 +22°C° 1 mm 1 mps 718 mmHg 85%
    10:00 +23°C° 1 mm 2 mps 718 mmHg 83%
    11:00 +24°C° 1 mm 2 mps 718 mmHg 81%
    12:00 +25°C° 1.1 mm 2 mps 718 mmHg 79%
    13:00 +25°C° 1.1 mm 2 mps 718 mmHg 78%
    14:00 +25°C° 1.1 mm 2 mps 718 mmHg 77%
    15:00 +25°C° 0.3 mm 2 mps 718 mmHg 76%
    16:00 +25°C° 0.3 mm 2 mps 718 mmHg 75%
    17:00 +25°C° 0.3 mm 3 mps 718 mmHg 74%
    18:00 +24°C° 0.6 mm 2 mps 718 mmHg 80%
    19:00 +23°C° 0.6 mm 2 mps 718 mmHg 86%
    20:00 +20°C° 0.6 mm 2 mps 718 mmHg 93%
    21:00 +20°C° 1 mm 2 mps 718 mmHg 93%
    22:00 +19°C° 1 mm 2 mps 718 mmHg 94%
    23:00 +19°C° 1 mm 2 mps 718 mmHg 95%
    Show more